Starlink 36109

operational
NORAD ID: 66943 Int'l Des: 2025-286 Owner: SPXS Country: US Constellation: starlink
LEOCIRCULAR

Starlink 36109について

説明を読み込み中...

リアルタイム位置

3D地球を読み込み中...

次回通過

高度履歴

Altitude vs Time

uPlot chart will show altitude changes over time

軌道要素

1 66943U 25286U 25347.58336806 -.01283832 50556-3 -29244-2 0 9997
2 66943 53.1566 46.3952 0000701 63.9887 241.8093 15.96830982 2059
Epoch: Dec 13, 2025 • Age: 16 hours

現在のステータス

高度 290.5 km
速度 7.73 km/s
衛星直下点 -8.09°S, 55.14°E
打ち上げ日 Dec 7, 2025
運用期間 6 days
タイプ internet

技術仕様

分類 Payload
質量 575.00 kg
乾燥質量 530.00 kg
総質量 575.00 kg
長さ 0.30 m
直径 4.10 m
スパン 29.00 m
形状 Box + pan
製造者 SPXS
バスタイプ Starlink V2MO
フェーズステータス In Orbit
所有者/国 SPXS/US

大規模コンステレーション

Loading constellations...